Regional Weather Roundup
Issued by NWS

Home | Current Version | Previous Version | Graphics & Text | Print | Product List | Glossary On
Versions: 1 2 3 4 5 6 7 8 9 10 11 12 13 14 15 16 17 18 19 20 21 22 23 24 25 26 27 28 29 30 31 32 33 34 35 36 37 38 39 40 41 42 43 44 45 46 47 48 49 50
000
ASUS43 KBIS 290510
RWRND

NORTH DAKOTA REGIONAL WEATHER ROUNDUP
NATIONAL WEATHER SERVICE BISMARCK ND
1200 AM CDT THU SEP 29 2016

NOTE: "FAIR" INDICATES FEW OR NO CLOUDS BELOW 12,000 FEET WITH NO
SIGNIFICANT WEATHER AND/OR OBSTRUCTIONS TO VISIBILITY.


NDZ001>003-009>011-017-290600-
NORTHWEST NORTH DAKOTA

CITY           SKY/WX    TMP DP  RH WIND       PRES   REMARKS
WILLISTON      CLEAR     60  39  45 E3        30.28S
MINOT          CLEAR     47  45  93 SE7       30.35S
MINOT AFB      CLEAR     45  43  93 SE8       30.34S
$$

NDZ018>021-031>035-040>046-290600-
SOUTHWEST NORTH DAKOTA

CITY           SKY/WX    TMP DP  RH WIND       PRES   REMARKS
BISMARCK       CLEAR     46  45  96 E5        30.38S
DICKINSON      CLEAR     51  37  58 SE15      30.32R
GARRISON         N/A     47  47 100 E7        30.35S
HETTINGER ARPT CLEAR     53  37  54 SE12      30.36R
$$

NDZ004>008-012>016-024-026-027-054-290600-
NORTHEAST NORTH DAKOTA

CITY           SKY/WX    TMP DP  RH WIND       PRES   REMARKS
GRAND FORKS    PTCLDY    44  42  93 CALM      30.41S
GRND FRKS AFB  CLEAR     41  41 100 SW2       30.41S FOG
DEVILS LAKE    CLEAR     50  47  89 SE8       30.41R
$$

NDZ022-023-025-028>030-036>039-047>053-290600-
SOUTHEAST NORTH DAKOTA

CITY           SKY/WX    TMP DP  RH WIND       PRES   REMARKS
FARGO          CLEAR     48  44  86 E5        30.41R
JAMESTOWN      CLEAR     45  42  89 SE3       30.40R
$$





USA.gov is the U.S. government's official web portal to all federal, state and local government web resources and services.